Hlavní strana
METAR-TAF:

METAR-TAF

Letiště :

Cherokee County Airport

Canton, Georgie, Spojené státy americké

zeměpisná šířka: 34-18-38N, zeměpisná délka: 084-25-26W, výška: 372 m

Aktuální stav počasí

Zpráva byla vytvořena před 16 minutami, v 17:10 UTC
Bezvětří
Teplota 10°C
Vlhkost vzduchu 100%
Tlak 1021 hPa
Viditelnost: 16.1 km
Zataženo ve výšce 500 ft

METAR: KCNI 151710Z AUTO 00000KT 10SM OVC005 10/10 A3015 RMK AO2

Čas: 12:26 (17:26 UTC)


TAF: chybějící

Stav a předpovědi počasí z více než 4 000 letišť (zprávy METAR a TAF).

Červené a žluté tečky na mapě představují dostupné meteorologické stanice.

Když kurzor umístíte na tečku, zobrazí se název stanice.

Pak kliknutím zobrazíte stav a předpověď počasí.

Chcete-li změnit mapu, kliknutím na zelené tlačítko se znaménkem +mapu přiblížíte, kliknutím na zelené tlačítko se znaménkem – mapu oddálíte a kliknutím na zelené šipky přejdete na sousední mapy.


METAR-TAF: